Language: 


Des rapports , des résumés tant et plus, au choix de chacun....


Données statistiques de la station
Quotidien Rapport Janvier 12, 2017 Unités:  Anglais    Métrique   les deux
« Précédent Jour
Suivant Jour »
Quotidien Hebdomadaire Mensuel Annuel Actuel
  Haut: Bas: Moyen:
Température: 45.1 °F 32 °F 41.5 °F
Pt de rosée: 43.3 °F 33.4 °F 38.7 °F
Humidité: 98 % 0 % 89 %
Vitesse du vent: 21.5 mph 0 mph 6.7 mph
Rafales: 26.6 mph - -
Vent:- - SW
Pression: 29.9 in 0 in -
Précipitation: 0.53 in    
Historical Graphs
 
 
Données statistiques pour Janvier 12, 2017
Heure Température Point de rosée Pression Vent Vitesse du vent Refales Humidité Pluie (taux horaire)
00:02 41.9 °F 34 °F 29.9 in WNW 6.9 mph 8.7 mph 73 % 0 in
00:07 41.7 °F 34 °F 29.9 in West 5.6 mph 8.5 mph 74 % 0 in
00:12 41.7 °F 34 °F 29.9 in West 3.1 mph 8.5 mph 74 % 0 in
00:17 41.7 °F 34 °F 29.9 in West 7.4 mph 8.5 mph 74 % 0 in
00:22 41.9 °F 34.2 °F 29.9 in NW 5.8 mph 10.1 mph 74 % 0 in
00:27 42.1 °F 34.3 °F 29.9 in West 10.5 mph 10.5 mph 74 % 0 in
00:32 42.1 °F 34.3 °F 29.9 in WNW 5.8 mph 12.8 mph 74 % 0 in
00:37 42.1 °F 34.3 °F 29.9 in West 8.7 mph 13 mph 74 % 0 in
00:42 42.1 °F 34.3 °F 29.9 in West 8.5 mph 13 mph 74 % 0 in
00:47 42.1 °F 34.3 °F 29.9 in West 8.9 mph 13.2 mph 74 % 0 in
00:52 42.1 °F 34.3 °F 29.9 in WSW 6.5 mph 13.2 mph 74 % 0 in
00:57 42.1 °F 34.3 °F 29.9 in West 10.3 mph 10.7 mph 74 % 0 in
01:02 41.9 °F 34.2 °F 29.9 in WSW 5.4 mph 10.5 mph 74 % 0 in
01:07 41.9 °F 34.5 °F 29.9 in West 8.5 mph 10.7 mph 75 % 0 in
01:12 41.9 °F 34.5 °F 29.9 in West 5.8 mph 11 mph 75 % 0 in
01:17 41.9 °F 34.5 °F 29.9 in WSW 6 mph 11 mph 75 % 0 in
01:22 41.9 °F 34.5 °F 29.9 in WSW 5.6 mph 10.1 mph 75 % 0 in
01:27 41.9 °F 34.9 °F 29.9 in WSW 7.6 mph 12.8 mph 76 % 0 in
01:32 41.9 °F 34.9 °F 29.9 in West 6.7 mph 12.8 mph 76 % 0 in
01:37 41.9 °F 34.9 °F 29.9 in WSW 5.4 mph 12.3 mph 76 % 0 in
01:42 41.9 °F 34.9 °F 29.9 in WSW 6.3 mph 12.3 mph 76 % 0 in
01:47 41.9 °F 34.9 °F 29.9 in SSW 8.5 mph 11 mph 76 % 0 in
01:52 42.1 °F 35.1 °F 29.9 in WSW 7.6 mph 11 mph 76 % 0 in
01:57 42.1 °F 35.1 °F 29.9 in West 9.8 mph 10.3 mph 76 % 0 in
02:02 32 °F 35.1 °F 0 in WSW 5.4 mph 8.7 mph 0 % 0 in
02:07 41.5 °F 34.5 °F 29.9 in WSW 3.8 mph 6 mph 76 % 0 in
02:12 41.2 °F 34.5 °F 29.9 in WSW 4.3 mph 6.5 mph 77 % 0 in
02:17 41 °F 34.3 °F 29.9 in West 4.5 mph 6.5 mph 77 % 0 in
02:22 40.8 °F 34.5 °F 29.9 in WSW 5.8 mph 5.8 mph 78 % 0 in
02:27 40.6 °F 34.5 °F 29.9 in WSW 5.8 mph 6 mph 79 % 0 in
02:32 40.5 °F 34.9 °F 29.9 in WSW 5.4 mph 7.2 mph 80 % 0 in
02:37 40.6 °F 35.2 °F 29.9 in West 5.6 mph 7.4 mph 81 % 0 in
02:42 40.6 °F 35.2 °F 29.9 in WSW 5.8 mph 7.4 mph 81 % 0 in
02:47 40.6 °F 35.2 °F 29.9 in West 4.7 mph 7.4 mph 81 % 0 in
02:52 40.5 °F 35.1 °F 29.9 in WSW 5.6 mph 6.5 mph 81 % 0 in
02:57 40.5 °F 35.4 °F 29.9 in West 5.8 mph 9.8 mph 82 % 0 in
03:02 40.5 °F 35.4 °F 29.9 in WSW 5.4 mph 9.8 mph 82 % 0 in
03:07 40.5 °F 35.4 °F 29.9 in West 6.3 mph 8.1 mph 82 % 0 in
03:12 40.3 °F 35.2 °F 29.9 in WSW 3.8 mph 8.1 mph 82 % 0 in
03:17 40.1 °F 34.9 °F 29.9 in WSW 6.3 mph 7.2 mph 81 % 0 in
03:22 39.7 °F 34.3 °F 29.9 in WSW 4.3 mph 6.3 mph 81 % 0 in
03:27 39.7 °F 34.3 °F 29.9 in West 6.3 mph 6.3 mph 81 % 0 in
03:32 39.6 °F 34.5 °F 29.9 in WSW 4 mph 6.3 mph 82 % 0 in
03:37 39.2 °F 34.2 °F 29.9 in WSW 4.9 mph 6 mph 82 % 0 in
03:42 39 °F 34 °F 29.9 in WSW 4.3 mph 5.6 mph 82 % 0 in
03:47 39.2 °F 34.5 °F 29.9 in WSW 5.8 mph 6 mph 83 % 0 in
03:52 39.2 °F 34.9 °F 29.9 in West 4.9 mph 7.2 mph 84 % 0 in
03:57 39.4 °F 35.1 °F 29.9 in WSW 5.4 mph 8.7 mph 84 % 0 in
04:02 39.4 °F 35.2 °F 29.9 in WSW 6.9 mph 8.7 mph 85 % 0 in
04:07 39.6 °F 35.4 °F 29.9 in WSW 5.8 mph 7.6 mph 85 % 0 in
04:12 39.7 °F 35.6 °F 29.9 in WSW 6.5 mph 7.4 mph 85 % 0 in
04:17 39.9 °F 36.1 °F 29.9 in WSW 6.3 mph 8.9 mph 86 % 0 in
04:22 40.1 °F 36.3 °F 29.9 in WSW 7.4 mph 8.9 mph 86 % 0 in
04:27 40.3 °F 36.3 °F 29.9 in WSW 4.9 mph 7.8 mph 86 % 0 in
04:32 40.1 °F 36.3 °F 29.9 in WSW 5.4 mph 7.8 mph 86 % 0 in
04:37 40.1 °F 36 °F 29.9 in WSW 5.6 mph 7.4 mph 85 % 0 in
04:42 40.1 °F 36 °F 29.9 in WSW 8.1 mph 8.1 mph 85 % 0 in
04:47 40.1 °F 36.3 °F 29.9 in WSW 7.8 mph 8.5 mph 86 % 0 in
04:52 40.5 °F 36.7 °F 29.9 in West 8.1 mph 8.7 mph 86 % 0 in
04:57 40.5 °F 36.7 °F 29.9 in West 6.3 mph 10.5 mph 86 % 0 in
05:02 40.6 °F 36.5 °F 29.9 in WSW 8.7 mph 10.5 mph 85 % 0 in
05:07 40.6 °F 36.5 °F 29.9 in West 6 mph 8.7 mph 85 % 0 in
05:12 40.5 °F 36 °F 29.9 in West 6 mph 8.7 mph 84 % 0 in
05:17 40.3 °F 35.8 °F 29.9 in West 7.4 mph 8.5 mph 84 % 0 in
05:22 40.3 °F 35.8 °F 29.9 in WSW 7.6 mph 8.7 mph 84 % 0 in
05:27 40.1 °F 35.8 °F 29.9 in WSW 8.1 mph 8.7 mph 84 % 0 in
05:32 39.9 °F 35.8 °F 29.9 in WSW 6 mph 8.1 mph 85 % 0 in
05:37 39.9 °F 35.8 °F 29.9 in WSW 5.6 mph 8.9 mph 85 % 0 in
05:42 40.1 °F 36.3 °F 29.9 in WSW 5.4 mph 8.9 mph 86 % 0 in
05:47 40.1 °F 36.3 °F 29.9 in West 7.4 mph 9.6 mph 86 % 0 in
05:52 40.3 °F 36.3 °F 29.9 in WSW 5.8 mph 9.6 mph 86 % 0 in
05:57 40.3 °F 36.3 °F 29.9 in WSW 5.8 mph 8.1 mph 86 % 0 in
06:02 40.3 °F 36.3 °F 29.9 in WSW 5.8 mph 8.1 mph 86 % 0 in
06:08 40.1 °F 36.3 °F 29.9 in WSW 5.8 mph 8.1 mph 86 % 0 in
06:12 40.1 °F 36.7 °F 29.9 in WSW 7.6 mph 7.6 mph 87 % 0 in
06:17 40.3 °F 36.7 °F 29.9 in WSW 6.3 mph 8.1 mph 87 % 0 in
06:22 40.3 °F 36.7 °F 29.9 in WSW 4 mph 8.1 mph 87 % 0 in
06:27 40.1 °F 36.7 °F 29.9 in WSW 4 mph 5.6 mph 87 % 0 in
06:32 39.7 °F 36.1 °F 29.9 in WSW 4 mph 5.8 mph 87 % 0 in
06:37 39.7 °F 36.1 °F 29.9 in WSW 5.6 mph 5.8 mph 87 % 0 in
06:38 39.7 °F 36.1 °F 29.9 in WSW 5.8 mph 5.8 mph 87 % 0 in
06:43 39.7 °F 36.1 °F 29.9 in WSW 3.8 mph 5.8 mph 87 % 0 in
06:48 39.7 °F 36.1 °F 29.9 in WSW 4.5 mph 5.8 mph 87 % 0 in
06:53 39.9 °F 36.7 °F 29.9 in WSW 5.8 mph 6 mph 88 % 0 in
06:58 40.1 °F 36.9 °F 29.9 in WSW 6.3 mph 6.5 mph 88 % 0 in
07:03 40.3 °F 37 °F 29.9 in SW 5.4 mph 7.4 mph 88 % 0 in
07:08 40.3 °F 37.2 °F 29.9 in SW 6 mph 7.6 mph 89 % 0 in
07:13 40.6 °F 37.8 °F 29.9 in SSW 6 mph 7.6 mph 89 % 0 in
07:18 40.8 °F 37.8 °F 29.9 in WSW 4 mph 7.6 mph 89 % 0 in
07:23 40.6 °F 37.8 °F 29.9 in WSW 5.6 mph 6 mph 89 % 0 in
07:28 40.5 °F 37.2 °F 29.9 in WSW 4.3 mph 5.8 mph 88 % 0 in
07:33 40.3 °F 37 °F 29.9 in SW 4.9 mph 5.8 mph 88 % 0 in
07:38 40.3 °F 37.2 °F 29.9 in WSW 5.4 mph 6 mph 89 % 0 in
07:43 40.5 °F 37.6 °F 29.9 in SSW 7.2 mph 7.2 mph 89 % 0 in
07:48 40.6 °F 37.9 °F 29.9 in WSW 5.4 mph 7.2 mph 90 % 0 in
07:53 40.8 °F 38.1 °F 29.9 in SW 4.5 mph 6.5 mph 90 % 0 in
07:58 40.8 °F 38.1 °F 29.9 in WSW 5.6 mph 8.1 mph 90 % 0 in
08:03 40.8 °F 38.1 °F 29.9 in WSW 5.4 mph 9.6 mph 90 % 0 in
08:08 41 °F 38.3 °F 29.9 in WSW 7.2 mph 9.6 mph 90 % 0 in
08:13 41.2 °F 38.5 °F 29.9 in WSW 5.6 mph 8.7 mph 90 % 0 in
08:18 41.2 °F 38.5 °F 29.9 in WSW 7.6 mph 8.7 mph 90 % 0 in
08:23 41.4 °F 38.7 °F 29.9 in WSW 7.4 mph 8.5 mph 90 % 0 in
08:28 41.5 °F 38.5 °F 29.9 in WSW 6.5 mph 8.5 mph 89 % 0 in
08:33 41.5 °F 38.5 °F 29.9 in SW 5.8 mph 10.1 mph 89 % 0 in
08:38 41.5 °F 38.1 °F 29.9 in SW 7.6 mph 10.1 mph 88 % 0 in
08:43 41.5 °F 38.1 °F 29.9 in WSW 12.1 mph 13 mph 88 % 0 in
08:48 41.7 °F 38.1 °F 29.9 in WSW 11 mph 13 mph 87 % 0 in
08:53 41.7 °F 38.1 °F 29.9 in WSW 7.8 mph 13 mph 87 % 0 in
08:58 41.5 °F 37.9 °F 29.9 in WSW 8.7 mph 13 mph 87 % 0 in
09:03 41.5 °F 37.9 °F 29.9 in WSW 10.3 mph 13 mph 87 % 0 in
09:08 41.5 °F 37.6 °F 29.9 in WSW 7.4 mph 13 mph 86 % 0 in
09:13 41.5 °F 37.6 °F 29.9 in WSW 8.1 mph 12.5 mph 86 % 0 in
09:18 41.5 °F 37.6 °F 29.9 in WSW 6 mph 12.3 mph 86 % 0 in
09:23 41.4 °F 37.6 °F 29.9 in WSW 5.4 mph 8.1 mph 86 % 0 in
09:28 41.2 °F 37 °F 29.9 in WSW 5.8 mph 6.5 mph 85 % 0 in
09:33 41 °F 37 °F 29.9 in WSW 5.8 mph 6.5 mph 86 % 0 in
09:38 41 °F 37 °F 29.9 in WSW 6 mph 7.2 mph 86 % 0 in
09:43 41 °F 37 °F 29.9 in WSW 6 mph 7.4 mph 86 % 0 in
09:48 41.2 °F 37.2 °F 29.9 in WSW 5.4 mph 7.4 mph 86 % 0 in
09:53 41.4 °F 37.8 °F 29.9 in WSW 5.4 mph 7.4 mph 87 % 0 in
09:58 41.4 °F 37.8 °F 29.9 in WSW 4 mph 7.2 mph 87 % 0 in
10:03 41.5 °F 37.9 °F 29.9 in SSW 5.8 mph 6.5 mph 87 % 0 in
10:08 41.9 °F 38.3 °F 29.9 in SW 5.8 mph 6.3 mph 87 % 0 in
10:13 42.1 °F 38.5 °F 29.9 in SSW 6 mph 6.5 mph 87 % 0 in
10:18 42.4 °F 38.5 °F 29.9 in SSW 4.9 mph 8.5 mph 86 % 0 in
10:23 42.6 °F 38.5 °F 29.9 in SSW 2.9 mph 8.5 mph 85 % 0 in
10:28 42.8 °F 38.7 °F 29.9 in South 2.7 mph 6.5 mph 85 % 0 in
10:33 42.8 °F 38.7 °F 29.9 in SSW 2.5 mph 7.4 mph 85 % 0 in
10:38 42.8 °F 38.7 °F 29.9 in South 4.3 mph 8.1 mph 85 % 0 in
10:43 43 °F 38.7 °F 29.9 in SSW 5.6 mph 9.6 mph 85 % 0 in
10:48 43.2 °F 38.8 °F 29.9 in South 6.3 mph 9.6 mph 85 % 0 in
10:53 43.2 °F 38.8 °F 29.9 in SSW 3.4 mph 8.7 mph 85 % 0 in
10:58 43.3 °F 39.4 °F 29.9 in WSW 8.5 mph 10.5 mph 86 % 0 in
11:03 43.3 °F 39.4 °F 29.9 in SSW 7.4 mph 13 mph 86 % 0 in
11:08 43.5 °F 39.9 °F 29.8 in SSW 6 mph 13 mph 87 % 0 in
11:14 43.9 °F 40.3 °F 29.8 in SSW 6.3 mph 10.1 mph 87 % 0 in
11:19 43.9 °F 40.3 °F 29.8 in SSW 7.8 mph 10.3 mph 87 % 0 in
11:24 44.1 °F 40.6 °F 29.8 in South 5.4 mph 10.3 mph 88 % 0 in
11:29 44.2 °F 40.8 °F 29.8 in WSW 5.6 mph 8.7 mph 88 % 0 in
11:34 44.2 °F 40.8 °F 29.8 in South 7.8 mph 10.7 mph 88 % 0 in
11:39 44.2 °F 40.8 °F 29.8 in SW 8.1 mph 10.7 mph 88 % 0 in
11:44 44.2 °F 40.8 °F 29.8 in WSW 4.9 mph 10.3 mph 88 % 0 in
11:49 44.2 °F 41.2 °F 29.8 in SSW 10.3 mph 13 mph 89 % 0 in
11:54 44.2 °F 41.2 °F 29.8 in SSW 7.4 mph 13 mph 89 % 0 in
11:59 44.2 °F 41.4 °F 29.8 in WSW 5.6 mph 11 mph 90 % 0 in
12:04 44.2 °F 41.4 °F 29.8 in WSW 6.5 mph 11 mph 90 % 0 in
12:09 44.2 °F 41.7 °F 29.8 in SSW 6.5 mph 13 mph 91 % 0 in
12:14 44.2 °F 41.7 °F 29.8 in SW 5.4 mph 13 mph 91 % 0 in
12:19 44.1 °F 41.7 °F 29.8 in SSW 8.1 mph 12.1 mph 92 % 0 in
12:24 44.1 °F 41.7 °F 29.8 in SSW 7.2 mph 9.6 mph 92 % 0 in
12:29 43.9 °F 41.9 °F 29.8 in SW 6.3 mph 9.6 mph 93 % 0 in
12:34 44.1 °F 42.1 °F 29.8 in SSW 4.3 mph 8.1 mph 93 % 0 in
12:39 44.2 °F 42.6 °F 29.8 in SSW 2 mph 8.1 mph 94 % 0 in
12:44 44.2 °F 42.6 °F 29.8 in South 2.9 mph 6.3 mph 94 % 0 in
12:49 44.2 °F 42.6 °F 29.8 in South 4.3 mph 7.8 mph 94 % 0 in
12:54 44.2 °F 42.6 °F 29.7 in SSW 3.1 mph 7.8 mph 94 % 0 in
12:59 44.4 °F 43 °F 29.7 in South 3.8 mph 7.6 mph 94 % 0 in
13:04 44.8 °F 43.2 °F 29.7 in South 4.9 mph 8.1 mph 94 % 0 in
13:09 44.8 °F 43.2 °F 29.7 in South 5.6 mph 8.1 mph 94 % 0 in
13:14 44.8 °F 43.2 °F 29.7 in South 2.5 mph 10.3 mph 94 % 0 in
13:19 44.8 °F 43.2 °F 29.7 in SSW 6.3 mph 10.3 mph 94 % 0 in
13:24 44.8 °F 43.2 °F 29.7 in SSW 7.8 mph 7.8 mph 94 % 0 in
13:29 44.8 °F 43.2 °F 29.7 in SW 4 mph 7.8 mph 94 % 0 in
13:34 45 °F 43.3 °F 29.7 in SSW 5.6 mph 9.8 mph 94 % 0 in
13:39 45.1 °F 43.3 °F 29.7 in SSW 1.3 mph 11 mph 94 % 0 in
13:44 45.1 °F 43.3 °F 29.7 in SSE 6.3 mph 11 mph 94 % 0 in
13:49 45.1 °F 43.3 °F 29.7 in SW 3.6 mph 10.1 mph 94 % 0 in
13:54 45.1 °F 43.3 °F 29.7 in WSW 7.4 mph 10.1 mph 94 % 0 in
13:59 45.1 °F 43.3 °F 29.7 in South 3.8 mph 10.3 mph 94 % 0 in
14:04 45.1 °F 43.3 °F 29.7 in South 7.8 mph 10.3 mph 94 % 0 in
14:09 45 °F 43 °F 29.7 in South 6.5 mph 10.3 mph 93 % 0 in
14:14 45 °F 43 °F 29.7 in SW 5.8 mph 12.3 mph 93 % 0 in
14:19 45 °F 43 °F 29.7 in Calm   12.3 mph 93 % 0 in
14:24 44.8 °F 42.8 °F 29.6 in SSW 6.3 mph 10.3 mph 93 % 0 in
14:29 44.8 °F 43.2 °F 29.6 in SSW 7.4 mph 10.3 mph 94 % 0 in
14:34 44.4 °F 42.6 °F 29.6 in SSW 8.7 mph 13.6 mph 93 % 0 in
14:39 44.4 °F 42.6 °F 29.6 in SW 5.4 mph 13.6 mph 93 % 0 in
14:44 44.4 °F 42.6 °F 29.6 in SW 5.8 mph 12.5 mph 93 % 0 in
14:49 44.4 °F 42.6 °F 29.6 in SSW 6.5 mph 11.9 mph 93 % 0 in
14:54 44.2 °F 42.4 °F 29.6 in SSW 6.3 mph 12.5 mph 93 % 0 in
14:59 44.2 °F 42.4 °F 29.6 in SSW 7.4 mph 12.5 mph 93 % 0 in
15:04 44.2 °F 42.6 °F 29.6 in SSW 7.4 mph 11.2 mph 94 % 0 in
15:09 44.2 °F 42.6 °F 29.6 in SSW 9.8 mph 11 mph 94 % 0 in
15:14 44.2 °F 42.6 °F 29.6 in SW 10.1 mph 12.8 mph 94 % 0 in
15:20 44.2 °F 42.6 °F 29.6 in WSW 5.6 mph 12.8 mph 94 % 0 in
15:25 44.2 °F 42.6 °F 29.6 in SSW 8.5 mph 11 mph 94 % 0 in
15:30 44.2 °F 42.6 °F 29.6 in SSW 4 mph 9.4 mph 94 % 0 in
15:35 44.2 °F 42.6 °F 29.6 in SW 8.5 mph 10.1 mph 94 % 0 in
15:40 44.2 °F 43 °F 29.6 in SSW 10.1 mph 16.3 mph 95 % 0 in
15:45 44.2 °F 43 °F 29.6 in South 7.8 mph 16.3 mph 95 % 0 in
15:50 44.2 °F 43 °F 29.6 in South 5.8 mph 10.7 mph 95 % 0 in
15:55 44.2 °F 43 °F 29.5 in SSW 4 mph 8.7 mph 95 % 0 in
16:00 44.2 °F 43 °F 29.5 in South 3.8 mph 9.8 mph 95 % 0 in
16:05 44.2 °F 43 °F 29.5 in South 6 mph 9.8 mph 95 % 0 in
16:10 44.2 °F 43 °F 29.5 in South 5.6 mph 10.7 mph 95 % 0 in
16:15 44.2 °F 42.8 °F 29.5 in SW 8.1 mph 10.7 mph 95 % 0 in
16:20 44.2 °F 42.8 °F 29.5 in SSW 8.1 mph 10.5 mph 95 % 0 in
16:25 44.2 °F 42.8 °F 29.5 in SSW 8.5 mph 12.3 mph 95 % 0 in
16:30 44.2 °F 42.8 °F 29.5 in South 6 mph 12.3 mph 95 % 0 in
16:35 44.2 °F 42.8 °F 29.5 in SSW 8.7 mph 10.1 mph 95 % 0 in
16:40 44.2 °F 42.8 °F 29.5 in South 5.6 mph 11 mph 95 % 0 in
16:45 44.2 °F 42.8 °F 29.5 in SSW 4.3 mph 13 mph 95 % 0.01 in
16:50 44.1 °F 42.6 °F 29.5 in South 6.3 mph 13 mph 95 % 0.01 in
16:55 44.1 °F 42.6 °F 29.4 in South 8.1 mph 11 mph 95 % 0.01 in
17:00 44.1 °F 42.6 °F 29.4 in South 7.2 mph 10.7 mph 95 % 0.01 in
17:05 44.1 °F 42.6 °F 29.4 in SSW 6.5 mph 9.4 mph 95 % 0.01 in
17:10 44.1 °F 42.6 °F 29.4 in South 5.6 mph 8.5 mph 95 % 0.01 in
17:15 43.9 °F 42.4 °F 29.4 in South 5.6 mph 8.1 mph 95 % 0.02 in
17:20 43.9 °F 42.4 °F 29.4 in SSW 7.2 mph 9.8 mph 95 % 0.02 in
17:25 43.5 °F 42.3 °F 29.4 in South 6.3 mph 10.3 mph 95 % 0.04 in
17:30 43.5 °F 42.6 °F 29.4 in South 7.2 mph 10.3 mph 96 % 0.04 in
17:35 43.5 °F 42.4 °F 29.4 in SSE 4 mph 8.5 mph 96 % 0.04 in
17:40 43.5 °F 42.4 °F 29.4 in South 4.3 mph 9.6 mph 96 % 0.06 in
17:45 43.5 °F 42.4 °F 29.4 in SSW 4.7 mph 9.6 mph 96 % 0.06 in
17:50 43.5 °F 42.4 °F 29.4 in South 10.1 mph 10.5 mph 96 % 0.07 in
17:55 43.3 °F 42.3 °F 29.4 in South 10.7 mph 10.7 mph 96 % 0.08 in
18:00 43.3 °F 42.3 °F 29.4 in SSW 7.8 mph 14.1 mph 96 % 0.09 in
18:05 43.3 °F 42.3 °F 29.4 in SSW 10.7 mph 14.1 mph 96 % 0.09 in
18:10 43.2 °F 42.1 °F 29.4 in SSW 3.6 mph 11.4 mph 96 % 0.1 in
18:15 43.2 °F 42.1 °F 29.4 in SSW 6.5 mph 11.4 mph 96 % 0.11 in
18:20 43.2 °F 42.1 °F 29.4 in WSW 9.6 mph 10.7 mph 96 % 0.12 in
18:25 43.2 °F 42.1 °F 29.3 in South 6.5 mph 16.3 mph 96 % 0.11 in
18:30 43 °F 41.9 °F 29.3 in SSW 8.5 mph 16.3 mph 96 % 0.11 in
18:35 42.8 °F 41.7 °F 29.3 in South 7.6 mph 10.5 mph 96 % 0.12 in
18:40 42.6 °F 41.5 °F 29.3 in SSW 3.8 mph 10.5 mph 96 % 0.11 in
18:45 42.6 °F 41.5 °F 29.3 in SSW 4.9 mph 10.1 mph 96 % 0.11 in
18:50 42.4 °F 41.4 °F 29.3 in South 4.9 mph 10.5 mph 96 % 0.1 in
18:55 42.4 °F 41.4 °F 29.3 in SSW 6 mph 10.5 mph 96 % 0.12 in
19:00 42.4 °F 41.4 °F 29.3 in South 7.2 mph 9.4 mph 96 % 0.11 in
19:05 42.4 °F 41.4 °F 29.3 in South 8.5 mph 10.1 mph 96 % 0.13 in
19:10 42.3 °F 41.2 °F 29.2 in SSW 10.7 mph 15.2 mph 96 % 0.13 in
19:15 42.3 °F 41.2 °F 29.2 in SSW 10.7 mph 15.2 mph 96 % 0.12 in
19:20 42.1 °F 41 °F 29.2 in SSW 5.8 mph 14.5 mph 96 % 0.12 in
19:25 41.9 °F 40.8 °F 29.2 in South 5.4 mph 12.8 mph 96 % 0.14 in
19:30 41.9 °F 40.8 °F 29.2 in SSW 12.5 mph 19.5 mph 96 % 0.14 in
19:35 41.5 °F 40.5 °F 29.2 in South 11.9 mph 19.5 mph 96 % 0.16 in
19:40 41.5 °F 40.5 °F 29.2 in South 8.5 mph 14.3 mph 96 % 0.16 in
19:45 41.5 °F 40.5 °F 29.2 in South 8.5 mph 14.3 mph 96 % 0.16 in
19:50 41.5 °F 40.5 °F 29.2 in South 6.5 mph 12.1 mph 96 % 0.17 in
19:55 41.4 °F 40.3 °F 29.1 in South 6 mph 13 mph 96 % 0.16 in
20:00 41.4 °F 40.3 °F 29.1 in SSE 7.8 mph 13 mph 96 % 0.17 in
20:05 41.4 °F 40.3 °F 29.1 in SSE 5.6 mph 12.3 mph 96 % 0.17 in
20:11 41.2 °F 40.1 °F 29.1 in SSE 7.8 mph 12.1 mph 96 % 0.17 in
20:16 41.2 °F 40.1 °F 29.1 in SE 4.5 mph 11 mph 96 % 0.15 in
20:21 41.2 °F 40.1 °F 29.1 in SE 4.9 mph 11 mph 96 % 0.16 in
20:26 41.2 °F 40.1 °F 29.1 in SE 7.8 mph 8.1 mph 96 % 0.15 in
20:30 41.2 °F 40.1 °F 29.1 in ESE 3.4 mph 7.8 mph 96 % 0.14 in
20:36 41.2 °F 40.5 °F 29.1 in East 6.5 mph 7.8 mph 97 % 0.11 in
20:41 41.2 °F 40.5 °F 29 in East 5.8 mph 8.5 mph 97 % 0.1 in
20:46 41.2 °F 40.5 °F 29 in SE 7.6 mph 10.1 mph 97 % 0.11 in
20:51 41.4 °F 40.6 °F 29 in SSE 3.8 mph 10.1 mph 97 % 0.09 in
20:56 41.4 °F 40.6 °F 29 in SE 4.3 mph 8.7 mph 97 % 0.08 in
21:01 41.5 °F 40.6 °F 29 in SE 2.5 mph 8.7 mph 97 % 0.06 in
21:06 41.5 °F 40.6 °F 29 in SE 4.3 mph 6.5 mph 97 % 0.05 in
21:11 41.7 °F 40.8 °F 29 in SSE 1.6 mph 8.1 mph 97 % 0.04 in
21:16 41.7 °F 40.8 °F 29 in SE 3.1 mph 8.1 mph 97 % 0.04 in
21:21 41.9 °F 41.2 °F 29 in SE 3.4 mph 5.8 mph 97 % 0.03 in
21:26 41.9 °F 41.2 °F 28.9 in ESE 3.4 mph 4.9 mph 97 % 0.01 in
21:31 41.9 °F 41.2 °F 28.9 in East 3.1 mph 4.3 mph 97 % 0.03 in
21:36 41.9 °F 41.2 °F 28.9 in Calm   3.8 mph 97 % 0.04 in
21:41 41.9 °F 41.2 °F 29 in NE 3.4 mph 3.8 mph 97 % 0.05 in
21:46 41.9 °F 41.2 °F 29 in NNE 2.9 mph 4.9 mph 97 % 0.04 in
21:51 42.1 °F 41.4 °F 29 in North 14.5 mph 14.5 mph 97 % 0.04 in
21:56 40.1 °F 39.4 °F 29 in North 11 mph 19.9 mph 97 % 0.04 in
22:01 38.5 °F 37.2 °F 29 in NNW 12.5 mph 21.5 mph 96 % 0.08 in
22:06 37.2 °F 35.8 °F 29 in North 8.5 mph 22.1 mph 94 % 0.08 in
22:11 36.9 °F 35.4 °F 29 in NNW 10.3 mph 22.1 mph 95 % 0.08 in
22:16 36.1 °F 34.9 °F 29 in NNW 10.7 mph 20.1 mph 95 % 0.08 in
22:21 35.4 °F 34.2 °F 29 in NNW 17.9 mph 19.5 mph 95 % 0.08 in
22:26 34.9 °F 33.4 °F 29 in NNW 8.7 mph 17.9 mph 95 % 0.07 in
22:31 34.5 °F 33.4 °F 29 in North 8.7 mph 14.1 mph 96 % 0.07 in
22:36 34.3 °F 33.4 °F 29 in North 8.7 mph 10.3 mph 97 % 0.06 in
22:41 34.3 °F 33.4 °F 29 in North 10.7 mph 10.7 mph 97 % 0.05 in
22:46 34.2 °F 33.4 °F 29 in North 10.7 mph 10.7 mph 97 % 0.04 in
22:51 34.3 °F 33.8 °F 29 in North 10.7 mph 10.7 mph 98 % 0.04 in
22:56 34.5 °F 34 °F 29.1 in North 10.7 mph 10.7 mph 98 % 0.04 in
23:01 34.5 °F 34.2 °F 29.1 in North 10.7 mph 10.7 mph 98 % 0 in
23:06 34.9 °F 34.3 °F 29.1 in North 10.7 mph 10.7 mph 98 % 0 in
23:11 35.1 °F 34.5 °F 29.1 in NNW 13 mph 13 mph 98 % 0 in
23:16 35.4 °F 34.9 °F 29.1 in WNW 10.7 mph 19.9 mph 98 % 0 in
23:21 35.4 °F 34.9 °F 29.1 in NNW 19.9 mph 19.9 mph 98 % 0 in
23:26 35.4 °F 35.1 °F 29.1 in WNW 16.1 mph 22.8 mph 98 % 0 in
23:31 35.4 °F 35.1 °F 29.1 in NNE 8.1 mph 22.8 mph 98 % 0 in
23:36 35.8 °F 35.2 °F 29.1 in North 18.8 mph 26.6 mph 98 % 0 in
23:41 35.8 °F 35.2 °F 29.1 in WNW 17.9 mph 26.6 mph 98 % 0 in
23:46 35.8 °F 35.2 °F 29.1 in NNW 7.8 mph 22.1 mph 98 % 0 in
23:51 35.8 °F 35.2 °F 29.1 in WNW 21.5 mph 25.9 mph 98 % 0 in
23:57 35.8 °F 35.2 °F 29.2 in North 8.5 mph 25.9 mph 98 % 0 in
Le Gheer Warneton
Courtoisie de Weather Underground - 2.25 mb

Mise a jour : 18/12/2017 23:25:11
Généré par Cumulus 1.9.4 (1099)